"Date","subscriberCount","subscriberChange","viewCount","viewChange","videoCount","videoChange","commentCount","commentChange"
"2020-10-15 00:02:05","1350000","0","64325467","0","42","1","0","0"
"2020-10-16 00:02:05","1360000","10000","66249498","1924031","43","1","0","0"
"2020-10-17 00:02:04","1360000","0","67228587","979089","43","0","0","0"
"2020-10-18 00:02:05","1360000","0","67730067","501480","43","0","0","0"
"2020-10-19 00:02:05","1370000","10000","68025612","295545","43","0","0","0"
"2020-10-20 00:02:05","1370000","0","68237616","212004","43","0","0","0"
"2020-10-21 00:02:04","1370000","0","68651744","414128","44","1","0","0"
"2020-10-22 00:02:04","1370000","0","68818606","166862","44","0","0","0"
"2020-10-23 00:02:06","1370000","0","69319445","500839","45","1","0","0"
"2020-10-24 00:02:05","1370000","0","71174838","1855393","45","0","0","0"
"2020-10-25 00:02:05","1370000","0","71451093","276255","45","0","0","0"
"2020-10-27 00:02:05","1380000","10000","71986084","534991","47","2","0","0"
"2020-10-28 00:02:04","1380000","0","72641805","655721","47","0","0","0"
"2020-10-29 00:02:04","1380000","0","72884297","242492","47","0","","0"
"2020-10-30 00:02:03","1380000","0","73119259","234962","48","1","","0"
"2020-10-31 00:02:05","1380000","0","73594199","474940","48","0","0","0"
"2020-11-01 00:02:04","1380000","0","73903230","309031","48","0","0","0"
"2020-11-02 00:02:02","1380000","0","74113095","209865","48","0","","0"
"2020-11-03 00:02:05","1380000","0","74298250","185155","49","1","0","0"
"2020-11-04 00:02:04","1380000","0","74727787","429537","49","0","","0"
"2020-11-05 00:02:06","1380000","0","74848579","120792","49","0","0","0"
"2020-11-06 00:02:05","1380000","0","74979235","130656","50","1","0","0"
"2020-11-07 00:02:06","1380000","0","75206803","227568","50","0","0","0"
"2020-11-08 00:02:05","1380000","0","75345409","138606","50","0","0","0"
"2020-11-09 00:02:06","1380000","0","75443421","98012","50","0","","0"
"2020-11-10 00:02:05","1380000","0","75563921","120500","51","1","","0"
"2020-11-11 00:02:04","1380000","0","75924326","360405","50","-1","","0"
"2020-11-12 00:02:03","1380000","0","76083916","159590","51","1","","0"
"2020-11-13 00:02:03","1380000","0","76189825","105909","52","1","","0"
"2020-11-14 00:02:02","1380000","0","76821425","631600","52","0","","0"
"2020-11-15 00:02:03","1380000","0","77136815","315390","52","0","","0"
"2020-11-16 00:02:04","1390000","10000","77376070","239255","52","0","","0"
"2020-11-17 00:02:02","1390000","0","77581544","205474","53","1","","0"
"2020-11-18 00:02:03","1390000","0","78056076","474532","54","1","","0"
"2020-11-19 00:02:02","1390000","0","78565017","508941","54","0","","0"
"2020-11-20 00:02:03","1390000","0","78810589","245572","55","1","","0"
"2020-11-21 00:02:02","1390000","0","79675592","865003","55","0","","0"
"2020-11-22 00:02:03","1390000","0","80173528","497936","55","0","","0"
"2020-11-23 00:02:03","1390000","0","80892106","718578","56","1","","0"
"2020-11-24 00:02:03","1400000","10000","81848533","956427","56","0","","0"
"2020-11-25 00:02:03","1400000","0","81978936","130403","56","0","","0"
"2020-11-26 00:02:03","1400000","0","82248912","269976","56","0","","0"
"2020-11-27 00:02:03","1400000","0","82481180","232268","57","1","","0"
"2020-11-28 00:02:03","1400000","0","83025850","544670","57","0","","0"
"2020-11-29 00:02:03","1400000","0","83330696","304846","57","0","","0"
"2020-11-30 00:02:03","1400000","0","83596967","266271","57","0","","0"
"2020-12-01 00:02:03","1400000","0","83810815","213848","58","1","","0"
"2020-12-02 00:02:03","1400000","0","84313415","502600","58","0","","0"
"2020-12-03 00:02:03","1410000","10000","84570736","257321","58","0","","0"
"2020-12-04 00:02:03","1410000","0","84825205","254469","59","1","","0"
"2020-12-05 00:02:06","1410000","0","85270542","445337","59","0","","0"
"2020-12-06 00:02:03","1410000","0","85559312","288770","59","0","","0"
"2020-12-07 00:02:03","1410000","0","85827025","267713","60","1","","0"
"2020-12-08 00:02:03","1410000","0","86431015","603990","61","1","","0"
"2020-12-09 00:02:03","1410000","0","87405287","974272","61","0","","0"
"2020-12-10 00:02:03","1410000","0","88017314","612027","61","0","","0"
"2020-12-11 00:02:03","1420000","10000","88405861","388547","62","1","","0"
"2020-12-12 00:02:04","1420000","0","89199485","793624","62","0","","0"
"2020-12-13 00:02:04","1420000","0","89753944","554459","62","0","","0"
"2020-12-14 00:02:04","1420000","0","90142235","388291","62","0","","0"
"2020-12-15 00:02:05","1420000","0","90469189","326954","63","1","","0"
"2020-12-16 00:02:04","1430000","10000","91232029","762840","63","0","","0"
"2020-12-17 00:02:04","1430000","0","91638972","406943","63","0","","0"
"2020-12-18 00:02:04","1430000","0","91989682","350710","64","1","","0"
"2020-12-19 00:02:04","1430000","0","92638116","648434","63","-1","","0"
"2020-12-20 00:02:04","1440000","10000","93090851","452735","64","1","","0"
"2020-12-21 00:02:04","1440000","0","93361937","271086","64","0","","0"
"2020-12-22 00:02:03","1440000","0","93481629","119692","65","1","","0"
"2020-12-23 00:02:03","1440000","0","94035249","553620","65","0","","0"
"2020-12-24 00:02:04","1440000","0","94296416","261167","65","0","","0"
"2020-12-25 00:02:04","1440000","0","94526191","229775","66","1","","0"
"2020-12-26 00:02:04","1440000","0","94987969","461778","67","1","","0"
"2020-12-27 00:02:03","1440000","0","95423253","435284","67","0","","0"
"2020-12-28 00:02:04","1440000","0","95715277","292024","67","0","","0"
"2020-12-29 00:02:03","1440000","0","95938989","223712","68","1","","0"
"2020-12-30 00:02:03","1440000","0","96436996","498007","69","1","","0"
"2020-12-31 00:02:03","1450000","10000","97525423","1088427","69","0","","0"
"2021-01-01 00:02:04","1450000","0","98088440","563017","69","0","","0"
"2021-01-02 00:02:05","1460000","10000","99325177","1236737","70","1","","0"
"2021-01-03 00:02:05","1460000","0","99860886","535709","70","0","","0"
"2021-01-04 00:02:05","1470000","10000","100288765","427879","70","0","","0"
"2021-01-05 00:02:06","1470000","0","100633160","344395","70","0","","0"
"2021-01-06 00:02:05","1470000","0","100937309","304149","70","0","","0"
"2021-01-07 00:02:02","1470000","0","101176791","239482","70","0","","0"
"2021-01-08 00:02:03","1470000","0","101418515","241724","71","1","","0"
"2021-01-09 00:02:02","1470000","0","101831979","413464","71","0","","0"
"2021-01-10 00:02:03","1470000","0","102074505","242526","71","0","","0"
"2021-01-11 00:02:03","1480000","10000","102264048","189543","71","0","","0"
"2021-01-12 00:02:03","1480000","0","102447959","183911","72","1","","0"
"2021-01-13 00:02:03","1480000","0","102747184","299225","72","0","","0"
"2021-01-14 00:02:02","1480000","0","102904213","157029","72","0","","0"
"2021-01-15 00:02:03","1480000","0","103094899","190686","72","0","","0"
"2021-01-16 00:02:03","1480000","0","101553753","-1541146","71","-1","","0"
"2021-01-17 00:02:03","1480000","0","101917827","364074","72","1","","0"
"2021-01-18 00:02:04","1480000","0","102215754","297927","72","0","","0"
"2021-01-19 00:02:03","1480000","0","102474732","258978","73","1","","0"
"2021-01-20 00:02:03","1480000","0","102834592","359860","73","0","","0"
"2021-01-21 00:02:03","1480000","0","103039203","204611","73","0","","0"
"2021-01-22 00:02:02","1480000","0","103244167","204964","74","1","","0"
"2021-01-23 00:02:03","1480000","0","103964365","720198","73","-1","","0"
"2021-01-24 00:02:02","1480000","0","104444990","480625","74","1","","0"
"2021-01-25 00:02:03","1490000","10000","104774767","329777","74","0","","0"
"2021-01-26 00:02:03","1490000","0","105006352","231585","75","1","","0"
"2021-01-27 00:02:03","1490000","0","105554213","547861","75","0","","0"
"2021-01-28 00:02:03","1490000","0","105861691","307478","75","0","","0"
"2021-01-29 00:02:03","1490000","0","106149138","287447","76","1","","0"
"2021-01-30 00:02:03","1490000","0","106507075","357937","76","0","","0"
"2021-01-31 00:02:02","1490000","0","106795109","288034","76","0","","0"
"2021-02-01 00:02:03","1500000","10000","107049442","254333","76","0","","0"
"2021-02-02 00:02:02","1510000","10000","107408211","358769","77","1","","0"
"2021-02-03 00:02:03","1520000","10000","107958981","550770","77","0","","0"
"2021-02-04 00:02:03","1520000","0","108250220","291239","77","0","","0"
"2021-02-05 00:02:03","1520000","0","108503250","253030","78","1","","0"
"2021-02-06 00:02:03","1520000","0","109190523","687273","78","0","","0"
"2021-02-07 00:02:03","1530000","10000","109741130","550607","78","0","","0"
"2021-02-08 00:02:03","1530000","0","110141550","400420","78","0","","0"
"2021-02-09 00:02:03","1530000","0","110352053","210503","79","1","","0"
"2021-02-10 00:02:03","1530000","0","110804211","452158","79","0","","0"
"2021-02-11 00:02:03","1530000","0","111045324","241113","79","0","","0"
"2021-02-12 00:02:02","1530000","0","111473425","428101","80","1","","0"
"2021-02-13 00:02:03","1530000","0","112259764","786339","80","0","","0"
"2021-02-14 00:02:03","1540000","10000","112687436","427672","80","0","","0"
"2021-02-15 00:02:02","1550000","10000","113099946","412510","80","0","","0"
"2021-02-16 00:02:03","1550000","0","113427674","327728","81","1","","0"
"2021-02-17 00:02:02","1550000","0","114202462","774788","81","0","","0"
"2021-02-18 00:02:03","1550000","0","114535495","333033","81","0","","0"
"2021-02-19 00:02:02","1550000","0","114828701","293206","82","1","","0"
"2021-02-20 00:02:03","1560000","10000","115349049","520348","82","0","","0"
"2021-02-21 00:02:03","1560000","0","115713519","364470","82","0","","0"
"2021-02-22 00:02:03","1560000","0","116032974","319455","82","0","","0"
"2021-02-23 00:02:02","1560000","0","116282489","249515","83","1","","0"
"2021-02-24 00:02:03","1560000","0","117163441","880952","83","0","","0"
"2021-02-25 00:02:02","1560000","0","117465398","301957","83","0","","0"
"2021-02-26 00:02:03","1560000","0","117659083","193685","84","1","","0"
"2021-02-27 00:02:02","1570000","10000","118171973","512890","84","0","","0"
"2021-02-28 00:02:03","1570000","0","118481518","309545","84","0","","0"
"2021-03-01 00:02:02","1570000","0","118709335","227817","84","0","","0"
"2021-03-02 00:02:03","1570000","0","118873073","163738","85","1","","0"
"2021-03-03 00:02:03","1570000","0","119302426","429353","85","0","","0"
"2021-03-04 00:02:02","1570000","0","119515457","213031","85","0","","0"
"2021-03-05 00:02:03","1570000","0","119559947","44490","86","1","","0"
"2021-03-06 00:02:03","1570000","0","119802874","242927","86","0","","0"
"2021-03-07 00:02:03","1570000","0","120029461","226587","86","0","","0"
"2021-03-08 00:02:03","1570000","0","120226042","196581","86","0","","0"
"2021-03-09 00:02:02","1570000","0","120402992","176950","87","1","","0"
"2021-03-10 00:02:03","1570000","0","120741486","338494","87","0","","0"
"2021-03-11 00:02:02","1570000","0","121068787","327301","87","0","","0"
"2021-03-12 00:02:03","1570000","0","121247723","178936","88","1","","0"
"2021-03-13 00:02:03","1570000","0","121479361","231638","88","0","","0"
"2021-03-14 00:02:03","1570000","0","121668147","188786","88","0","","0"
"2021-03-15 00:02:03","1570000","0","121826114","157967","88","0","","0"
"2021-03-16 00:02:02","1570000","0","121939359","113245","89","1","","0"
"2021-03-17 00:02:03","1570000","0","122237380","298021","88","-1","","0"
"2021-03-18 00:02:02","1570000","0","122620229","382849","89","1","","0"
"2021-03-19 00:02:03","1570000","0","122836913","216684","90","1","","0"
"2021-03-20 00:02:02","1570000","0","123207211","370298","90","0","","0"
"2021-03-21 00:02:03","1580000","10000","123624091","416880","90","0","","0"
"2021-03-22 00:02:02","1580000","0","123881972","257881","90","0","","0"
"2021-03-23 00:02:03","1580000","0","124154643","272671","91","1","","0"
"2021-03-24 00:02:03","1580000","0","124414687","260044","90","-1","","0"
"2021-03-25 00:02:02","1580000","0","124674432","259745","91","1","","0"
"2021-03-26 00:02:03","1580000","0","124823199","148767","92","1","","0"
"2021-03-27 00:02:02","1580000","0","125062619","239420","92","0","","0"
"2021-03-28 00:02:03","1580000","0","125613265","550646","92","0","","0"
"2021-03-29 00:02:03","1580000","0","125900129","286864","93","1","","0"
"2021-03-30 00:02:03","1580000","0","126256618","356489","94","1","","0"
"2021-03-31 00:02:02","1580000","0","126780685","524067","93","-1","","0"
"2021-04-01 00:02:03","1580000","0","127133271","352586","94","1","","0"
"2021-04-02 00:02:02","1580000","0","127355032","221761","95","1","","0"
"2021-04-03 00:02:02","1580000","0","127658665","303633","94","-1","","0"
"2021-04-04 00:02:03","1580000","0","128043139","384474","95","1","","0"
"2021-04-05 00:02:03","1580000","0","128309167","266028","96","1","","0"
"2021-04-06 00:02:03","1580000","0","128582452","273285","97","1","","0"
"2021-04-07 00:02:03","1590000","10000","129011735","429283","97","0","","0"
"2021-04-08 00:02:03","1590000","0","129302923","291188","97","0","","0"
"2021-04-09 00:02:03","1590000","0","129513494","210571","98","1","","0"
"2021-04-10 00:02:03","1590000","0","129785856","272362","99","1","","0"
"2021-04-11 00:02:03","1590000","0","130157401","371545","99","0","","0"
"2021-04-12 00:02:03","1590000","0","130406409","249008","99","0","","0"
"2021-04-13 00:02:03","1580000","-10000","130543456","137047","100","1","","0"
"2021-04-14 00:02:03","1590000","10000","130893640","350184","100","0","","0"
"2021-04-15 00:02:03","1590000","0","131215925","322285","100","0","","0"
"2021-04-16 00:02:04","1590000","0","131368164","152239","101","1","","0"
"2021-04-17 00:02:03","1590000","0","131717574","349410","101","0","","0"
"2021-04-18 00:02:04","1590000","0","132244273","526699","101","0","","0"
"2021-04-19 00:02:04","1590000","0","132614478","370205","101","0","","0"
"2021-04-20 00:02:03","1590000","0","132917852","303374","102","1","","0"
"2021-04-21 00:02:03","1590000","0","133223274","305422","101","-1","","0"
"2021-04-22 00:02:03","1590000","0","133493133","269859","102","1","","0"
"2021-04-23 00:02:03","1590000","0","133659043","165910","103","1","","0"
"2021-04-24 00:02:03","1590000","0","133930631","271588","103","0","","0"
"2021-04-25 00:02:03","1590000","0","134179330","248699","104","1","","0"
"2021-04-26 00:02:04","1590000","0","134388132","208802","104","0","","0"
"2021-04-27 00:02:03","1590000","0","134587650","199518","105","1","","0"
"2021-04-28 00:02:03","1590000","0","134882742","295092","105","0","","0"
"2021-04-29 00:02:03","1590000","0","135110502","227760","105","0","","0"
"2021-04-30 00:02:03","1590000","0","135238142","127640","106","1","","0"
"2021-05-01 00:02:04","1590000","0","135547740","309598","105","-1","","0"
"2021-05-02 00:02:03","1590000","0","135844122","296382","107","2","","0"
"2021-05-03 00:02:04","1590000","0","136211706","367584","107","0","","0"
"2021-05-04 00:02:04","1590000","0","136471092","259386","108","1","","0"
"2021-05-05 00:02:03","1590000","0","136875628","404536","108","0","","0"
"2021-05-06 00:02:03","1590000","0","137224035","348407","108","0","","0"
"2021-05-07 00:02:04","1590000","0","137487706","263671","109","1","","0"
"2021-05-08 00:02:04","1590000","0","138184608","696902","109","0","","0"
"2021-05-09 00:02:02","1600000","10000","139129007","944399","109","0","","0"
"2021-05-10 00:02:04","1600000","0","139895850","766843","109","0","","0"
"2021-05-11 00:02:03","1610000","10000","140665662","769812","110","1","","0"
"2021-05-12 00:02:04","1610000","0","141338420","672758","110","0","","0"
"2021-05-13 00:02:03","1610000","0","141916089","577669","110","0","","0"
"2021-05-14 00:02:04","1620000","10000","142293555","377466","111","1","","0"
"2021-05-15 00:02:03","1620000","0","142748971","455416","112","1","","0"
"2021-05-16 00:02:04","1620000","0","143339997","591026","112","0","","0"
"2021-05-17 00:02:03","1620000","0","143858190","518193","112","0","","0"
"2021-05-18 00:02:04","1620000","0","144286035","427845","113","1","","0"
"2021-05-19 00:02:03","1630000","10000","144888212","602177","113","0","","0"
"2021-05-20 00:02:03","1630000","0","145655914","767702","113","0","","0"
"2021-05-21 00:02:03","1630000","0","146048926","393012","114","1","","0"
"2021-05-22 00:02:03","1630000","0","146592341","543415","114","0","","0"
"2021-05-23 00:02:04","1630000","0","147141699","549358","114","0","","0"
"2021-05-24 00:02:04","1630000","0","147486453","344754","114","0","","0"
"2021-05-25 00:02:04","1630000","0","147641876","155423","115","1","","0"
"2021-05-26 00:02:03","1630000","0","148103087","461211","115","0","","0"
"2021-05-27 00:02:03","1640000","10000","148372332","269245","115","0","","0"
"2021-05-28 00:02:03","1640000","0","148531872","159540","116","1","","0"
"2021-05-29 00:02:04","1640000","0","148839778","307906","117","1","","0"
"2021-05-30 00:02:05","1640000","0","149462437","622659","117","0","","0"
"2021-05-31 00:02:04","1640000","0","149990894","528457","117","0","","0"
"2021-06-01 00:02:04","1640000","0","150246771","255877","118","1","","0"
"2021-06-02 00:02:03","1640000","0","150746705","499934","119","1","","0"
"2021-06-03 00:02:03","1640000","0","151124220","377515","119","0","","0"
"2021-06-04 00:02:03","1640000","0","151414366","290146","120","1","","0"
"2021-06-05 00:02:03","1640000","0","151821031","406665","120","0","","0"
"2021-06-06 00:02:03","1640000","0","152256640","435609","120","0","","0"
"2021-06-07 00:02:03","1640000","0","152547750","291110","120","0","","0"
"2021-06-08 00:02:05","1640000","0","152789728","241978","121","1","","0"
"2021-06-09 00:02:02","1640000","0","153060260","270532","121","0","","0"
"2021-06-10 00:02:03","1640000","0","153315384","255124","121","0","","0"
"2021-06-11 00:02:04","1640000","0","153463467","148083","122","1","","0"
"2021-06-12 00:02:04","1640000","0","153787900","324433","123","1","","0"
"2021-06-13 00:02:03","1640000","0","154177553","389653","123","0","","0"
"2021-06-14 00:02:03","1640000","0","154448473","270920","122","-1","","0"
"2021-06-15 00:02:03","1640000","0","154620088","171615","124","2","","0"
"2021-06-16 00:02:03","1640000","0","154841255","221167","122","-2","","0"
"2021-06-17 00:02:03","1640000","0","155057904","216649","124","2","","0"
"2021-06-18 00:02:03","1640000","0","155189500","131596","125","1","","0"
"2021-06-19 00:02:03","1640000","0","155506422","316922","125","0","","0"
"2021-06-20 00:02:03","1640000","0","155821550","315128","125","0","","0"
"2021-06-21 00:02:03","1640000","0","156071025","249475","125","0","","0"
"2021-06-22 00:02:03","1640000","0","156255417","184392","126","1","","0"
"2021-06-23 00:02:03","1640000","0","156489003","233586","127","1","","0"
"2021-06-24 00:02:03","1640000","0","156791012","302009","127","0","","0"
"2021-06-25 00:02:03","1640000","0","157027120","236108","128","1","","0"
"2021-06-26 00:02:04","1640000","0","157472932","445812","128","0","","0"
"2021-06-27 00:02:04","1640000","0","158015885","542953","128","0","","0"
"2021-06-28 00:02:03","1640000","0","158400911","385026","128","0","","0"
"2021-06-29 00:02:04","1640000","0","158639362","238451","129","1","","0"
"2021-06-30 00:02:03","1640000","0","158867534","228172","129","0","","0"
"2021-07-01 00:02:04","1640000","0","159102488","234954","129","0","","0"
"2021-07-02 00:02:04","1640000","0","159238999","136511","130","1","","0"
"2021-07-03 00:02:04","1640000","0","159520585","281586","130","0","","0"
"2021-07-04 00:02:04","1640000","0","159826490","305905","130","0","","0"
"2021-07-05 00:02:04","1640000","0","160006709","180219","130","0","","0"
"2021-07-06 00:02:04","1640000","0","160099474","92765","131","1","","0"
"2021-07-07 00:02:04","1640000","0","160345058","245584","131","0","","0"
"2021-07-08 00:02:04","1640000","0","160503291","158233","131","0","","0"
"2021-07-09 00:02:05","1640000","0","160589284","85993","132","1","","0"
"2021-07-10 00:02:04","1640000","0","160848120","258836","132","0","","0"
"2021-07-11 00:02:03","1640000","0","161127631","279511","132","0","","0"
"2021-07-12 00:02:03","1640000","0","161295196","167565","132","0","","0"
"2021-07-13 00:02:02","1650000","10000","161407325","112129","133","1","","0"
"2021-07-14 00:02:03","1650000","0","161778295","370970","133","0","","0"
"2021-07-15 00:02:03","1650000","0","162059421","281126","133","0","","0"
"2021-07-16 00:02:03","1650000","0","162182492","123071","134","1","","0"
"2021-07-17 00:02:02","1660000","10000","162460736","278244","135","1","","0"
"2021-07-18 00:02:02","1660000","0","164141655","1680919","134","-1","","0"
"2021-07-19 00:02:03","1660000","0","163364623","-777032","134","0","","0"
"2021-07-20 00:02:03","1660000","0","163597853","233230","134","0","","0"
"2021-07-21 00:02:03","1660000","0","163748520","150667","134","0","","0"
"2021-07-22 00:02:02","1660000","0","163846569","98049","134","0","","0"
"2021-07-23 00:02:03","1660000","0","163924410","77841","135","1","","0"
"2021-07-24 00:02:02","1660000","0","164136492","212082","135","0","","0"
"2021-07-25 00:02:03","1660000","0","164378261","241769","135","0","","0"
"2021-07-26 00:02:03","1660000","0","164492122","113861","135","0","","0"
"2021-07-27 00:02:02","1660000","0","164603082","110960","136","1","","0"
"2021-07-28 00:02:03","1660000","0","164853576","250494","136","0","","0"
"2021-07-29 00:02:02","1660000","0","165172189","318613","136","0","","0"
"2021-07-30 00:02:03","1660000","0","165384477","212288","137","1","","0"
"2021-07-31 00:02:03","1660000","0","165700771","316294","137","0","","0"
"2021-08-01 00:02:02","1660000","0","165941439","240668","137","0","","0"
"2021-08-02 00:02:02","1660000","0","166103472","162033","137","0","","0"
"2021-08-03 00:02:02","1660000","0","166251205","147733","138","1","","0"
"2021-08-04 00:02:03","1660000","0","166488726","237521","138","0","","0"
"2021-08-05 00:02:02","1660000","0","166672621","183895","138","0","","0"
"2021-08-06 00:02:02","1660000","0","166811738","139117","139","1","","0"
"2021-08-07 00:02:02","1660000","0","166954256","142518","139","0","","0"
"2021-08-08 00:02:03","1660000","0","167350933","396677","139","0","","0"
"2021-08-09 00:02:03","1660000","0","167529962","179029","139","0","","0"
"2021-08-10 00:02:03","1660000","0","167728515","198553","140","1","","0"
"2021-08-11 00:02:03","1660000","0","167728515","0","140","0","","0"
"2021-08-12 00:02:03","1660000","0","168386339","657824","140","0","","0"
"2021-08-13 00:02:03","1660000","0","168582147","195808","141","1","","0"
"2021-08-14 00:02:04","1670000","10000","168938418","356271","140","-1","","0"
"2021-08-15 00:02:03","1670000","0","169000307","61889","140","0","","0"
"2021-08-16 00:02:04","1670000","0","169554002","553695","140","0","","0"
"2021-08-17 00:02:03","1670000","0","169313952","-240050","141","1","","0"
"2021-08-18 00:02:02","1660000","-10000","169614331","300379","141","0","","0"
"2021-08-19 00:02:02","1660000","0","169816620","202289","141","0","","0"
"2021-08-20 00:02:02","1660000","0","169956285","139665","142","1","","0"
"2021-08-21 00:02:03","1660000","0","170187852","231567","143","1","","0"
"2021-08-22 00:02:07","1660000","0","170506404","318552","143","0","","0"
"2021-08-23 00:02:02","1670000","10000","170744193","237789","144","1","","0"
"2021-08-24 00:02:03","1670000","0","171115479","371286","144","0","","0"
"2021-08-25 00:02:03","1670000","0","172043303","927824","144","0","","0"
"2021-08-26 00:02:03","1670000","0","172564830","521527","144","0","","0"
"2021-08-27 00:02:02","1680000","10000","172951552","386722","145","1","","0"
"2021-08-28 00:02:03","1680000","0","173438543","486991","145","0","","0"
"2021-08-29 00:02:02","1680000","0","173952199","513656","145","0","","0"
"2021-08-30 00:02:03","1680000","0","174345688","393489","145","0","","0"
"2021-08-31 00:02:03","1680000","0","174597501","251813","146","1","","0"
"2021-09-01 00:02:03","1680000","0","175031297","433796","146","0","","0"
"2021-09-02 00:02:03","1680000","0","175372443","341146","146","0","","0"
"2021-09-03 00:02:03","1680000","0","175587228","214785","147","1","","0"